HAZ6331 ZSAM-ZSHC

Flight info

Callsign HAZ6331
Flight time 1h 3m
Altitude 25600
Route DOVPU W643 FOC W644 AKAVO A470 UGAGO
Aircraft A20N/M-SD1T1E2E3FGILRWXY/LB1D1

Departure

Time 2026-05-08 13:36
Airport Xiamen Gaoqi International Airport (ZSAM)

Arrival

Time 2026-05-08 14:39
Airport Hangzhou Xiaoshan International Airport (ZSHC)
Time Latitude Longitude Altitude Speed Heading
2026-05-08 13:16 24.53756 118.12531 61 ft 0 kts 142°
2026-05-08 13:26 24.53763 118.12525 62 ft 2 kts 136°
2026-05-08 13:26 24.53774 118.12514 62 ft 2 kts 139°
2026-05-08 13:27 24.53785 118.12503 62 ft 2 kts 138°
2026-05-08 13:27 24.53797 118.12492 62 ft 2 kts 138°
2026-05-08 13:27 24.53808 118.12481 62 ft 2 kts 138°
2026-05-08 13:27 24.53819 118.12470 62 ft 2 kts 138°
2026-05-08 13:28 24.53830 118.12459 62 ft 2 kts 138°
2026-05-08 13:28 24.53842 118.12448 62 ft 2 kts 138°
2026-05-08 13:28 24.53847 118.12443 62 ft 0 kts 141°
2026-05-08 13:30 24.53846 118.12444 62 ft 0 kts 141°
2026-05-08 13:30 24.53838 118.12450 62 ft 2 kts 145°
2026-05-08 13:31 24.53817 118.12458 62 ft 3 kts 179°
2026-05-08 13:31 24.53792 118.12444 63 ft 4 kts 231°
2026-05-08 13:31 24.53773 118.12413 64 ft 5 kts 235°
2026-05-08 13:31 24.53751 118.12379 65 ft 5 kts 234°
2026-05-08 13:32 24.53722 118.12337 66 ft 8 kts 232°
2026-05-08 13:32 24.53697 118.12274 67 ft 10 kts 297°
2026-05-08 13:32 24.53764 118.12208 65 ft 14 kts 306°
2026-05-08 13:32 24.53745 118.12110 67 ft 14 kts 231°
2026-05-08 13:33 24.53682 118.12026 70 ft 13 kts 230°
2026-05-08 13:33 24.53621 118.11942 71 ft 14 kts 232°
2026-05-08 13:33 24.53555 118.11848 71 ft 16 kts 232°
2026-05-08 13:33 24.53477 118.11738 69 ft 19 kts 232°
2026-05-08 13:34 24.53409 118.11637 67 ft 14 kts 244°
2026-05-08 13:34 24.53408 118.11558 66 ft 0 kts 284°
2026-05-08 13:34 24.53411 118.11545 65 ft 5 kts 284°
2026-05-08 13:35 24.53447 118.11484 64 ft 13 kts 332°
2026-05-08 13:35 24.53540 118.11544 65 ft 30 kts 53°
2026-05-08 13:35 24.53833 118.11958 68 ft 104 kts 52°
2026-05-08 13:35 24.54403 118.12755 152 ft 152 kts 52°
2026-05-08 13:36 24.55079 118.13691 654 ft 163 kts 52°
2026-05-08 13:36 24.55813 118.14730 1160 ft 179 kts 53°
2026-05-08 13:36 24.56591 118.15839 1775 ft 190 kts 52°
2026-05-08 13:36 24.57406 118.16980 2475 ft 193 kts 52°
2026-05-08 13:37 24.58246 118.18148 2899 ft 195 kts 52°
2026-05-08 13:37 24.59122 118.19370 3331 ft 210 kts 52°
2026-05-08 13:37 24.60079 118.20712 3741 ft 233 kts 52°
2026-05-08 13:37 24.61141 118.22163 4188 ft 249 kts 49°
2026-05-08 13:38 24.62360 118.23565 4626 ft 256 kts 44°
2026-05-08 13:38 24.63707 118.24952 5076 ft 274 kts 43°
2026-05-08 13:38 24.65151 118.26421 5527 ft 292 kts 43°
2026-05-08 13:38 24.66699 118.27996 5979 ft 312 kts 43°
2026-05-08 13:39 24.68344 118.29675 6418 ft 327 kts 43°
2026-05-08 13:39 24.70031 118.31400 6856 ft 333 kts 43°
2026-05-08 13:39 24.71748 118.33157 7298 ft 337 kts 42°
2026-05-08 13:39 24.73467 118.34937 7740 ft 341 kts 44°
2026-05-08 13:40 24.75137 118.36842 8185 ft 344 kts 45°
2026-05-08 13:40 24.76769 118.38767 8617 ft 347 kts 46°
2026-05-08 13:40 24.78432 118.40741 9060 ft 350 kts 45°
2026-05-08 13:40 24.80103 118.42723 9499 ft 354 kts 45°
2026-05-08 13:41 24.81795 118.44730 9943 ft 357 kts 45°
2026-05-08 13:41 24.83498 118.46746 10375 ft 360 kts 45°
2026-05-08 13:41 24.85208 118.48773 10810 ft 364 kts 45°
2026-05-08 13:41 24.86944 118.50832 11245 ft 368 kts 45°
2026-05-08 13:42 24.88710 118.52904 11681 ft 371 kts 45°
2026-05-08 13:42 24.90492 118.54985 12105 ft 375 kts 44°
2026-05-08 13:42 24.92321 118.57121 12533 ft 379 kts 44°
2026-05-08 13:42 24.94125 118.59229 12960 ft 382 kts 44°
2026-05-08 13:43 24.95971 118.61390 13397 ft 386 kts 44°
2026-05-08 13:43 24.97828 118.63564 13823 ft 389 kts 44°
2026-05-08 13:43 24.99699 118.65757 14250 ft 393 kts 44°
2026-05-08 13:43 25.01565 118.67959 14678 ft 396 kts 44°
2026-05-08 13:44 25.03475 118.70214 15100 ft 399 kts 44°
2026-05-08 13:44 25.05369 118.72445 15518 ft 401 kts 45°
2026-05-08 13:44 25.07304 118.74724 15943 ft 404 kts 44°
2026-05-08 13:44 25.09248 118.77009 16367 ft 408 kts 44°
2026-05-08 13:45 25.11198 118.79298 16784 ft 411 kts 44°
2026-05-08 13:45 25.13170 118.81602 17202 ft 413 kts 44°
2026-05-08 13:45 25.15148 118.83920 17607 ft 417 kts 44°
2026-05-08 13:45 25.17144 118.86265 17788 ft 418 kts 44°
2026-05-08 13:46 25.19157 118.88634 17849 ft 417 kts 44°
2026-05-08 13:46 25.21166 118.91000 18133 ft 420 kts 44°
2026-05-08 13:46 25.23166 118.93359 18411 ft 422 kts 44°
2026-05-08 13:46 25.25191 118.95751 18698 ft 424 kts 44°
2026-05-08 13:47 25.27197 118.98114 18983 ft 425 kts 44°
2026-05-08 13:47 25.29250 119.00504 19269 ft 427 kts 43°
2026-05-08 13:47 25.31324 119.02908 19553 ft 429 kts 43°
2026-05-08 13:47 25.33399 119.05315 19834 ft 431 kts 43°
2026-05-08 13:48 25.35466 119.07716 20113 ft 432 kts 43°
2026-05-08 13:48 25.37555 119.10148 20393 ft 435 kts 43°
2026-05-08 13:48 25.39646 119.12583 20671 ft 436 kts 43°
2026-05-08 13:48 25.41759 119.15048 20950 ft 439 kts 43°
2026-05-08 13:49 25.43873 119.17512 21219 ft 440 kts 43°
2026-05-08 13:49 25.45958 119.19946 21487 ft 441 kts 43°
2026-05-08 13:49 25.48091 119.22440 21768 ft 443 kts 43°
2026-05-08 13:49 25.50236 119.24948 22046 ft 445 kts 43°
2026-05-08 13:50 25.52369 119.27442 22319 ft 447 kts 43°
2026-05-08 13:50 25.54515 119.29955 22600 ft 449 kts 43°
2026-05-08 13:50 25.56681 119.32505 22875 ft 451 kts 43°
2026-05-08 13:50 25.58835 119.35049 23156 ft 453 kts 43°
2026-05-08 13:51 25.61022 119.37635 23440 ft 455 kts 43°
2026-05-08 13:51 25.63198 119.40208 23719 ft 457 kts 42°
2026-05-08 13:51 25.65383 119.42795 24012 ft 460 kts 42°
2026-05-08 13:51 25.67594 119.45414 24308 ft 462 kts 42°
2026-05-08 13:52 25.69809 119.48039 24606 ft 464 kts 42°
2026-05-08 13:52 25.72008 119.50645 24900 ft 466 kts 42°
2026-05-08 13:52 25.74250 119.53303 25196 ft 468 kts 41°
2026-05-08 13:52 25.76575 119.55817 25486 ft 466 kts 35°
2026-05-08 13:53 25.79155 119.58025 25708 ft 462 kts 28°
2026-05-08 13:53 25.81898 119.59853 25735 ft 457 kts 22°
2026-05-08 13:53 25.84760 119.61492 25745 ft 455 kts 20°
2026-05-08 13:53 25.87603 119.63059 25751 ft 459 kts 18°
2026-05-08 13:54 25.90653 119.64282 25744 ft 462 kts
2026-05-08 13:54 25.93821 119.64859 25745 ft 463 kts 357°
2026-05-08 13:54 25.97084 119.64826 25756 ft 466 kts 351°
2026-05-08 13:54 26.00377 119.64594 25753 ft 473 kts 350°
2026-05-08 13:55 26.03690 119.64337 25753 ft 475 kts 350°
2026-05-08 13:55 26.07023 119.64082 25756 ft 475 kts 350°
2026-05-08 13:55 26.13632 119.63596 25756 ft 475 kts 350°
2026-05-08 13:56 26.16968 119.63359 25757 ft 475 kts 350°
2026-05-08 13:56 26.20273 119.63126 25753 ft 475 kts 350°
2026-05-08 13:56 26.23595 119.62891 25754 ft 475 kts 350°
2026-05-08 13:56 26.26915 119.62656 25759 ft 475 kts 350°
2026-05-08 13:57 26.30257 119.62418 25750 ft 475 kts 350°
2026-05-08 13:57 26.33567 119.62183 25751 ft 475 kts 350°
2026-05-08 13:57 26.36885 119.61948 25756 ft 475 kts 350°
2026-05-08 13:57 26.40217 119.61713 25752 ft 476 kts 350°
2026-05-08 13:58 26.43545 119.61476 25752 ft 476 kts 349°
2026-05-08 13:58 26.46862 119.61241 25749 ft 475 kts 349°
2026-05-08 13:58 26.50200 119.61003 25752 ft 476 kts 350°
2026-05-08 13:58 26.53523 119.60767 25756 ft 476 kts 349°
2026-05-08 13:59 26.56825 119.60532 25752 ft 476 kts 349°
2026-05-08 13:59 26.60164 119.60295 25752 ft 475 kts 349°
2026-05-08 13:59 26.63456 119.60060 25750 ft 476 kts 349°
2026-05-08 13:59 26.66782 119.59821 25754 ft 475 kts 349°
2026-05-08 14:00 26.70127 119.59585 25757 ft 476 kts 349°
2026-05-08 14:00 26.73436 119.59350 25752 ft 475 kts 349°
2026-05-08 14:00 26.76762 119.59111 25752 ft 475 kts 349°
2026-05-08 14:00 26.80040 119.58877 25754 ft 476 kts 349°
2026-05-08 14:01 26.83399 119.58637 25755 ft 476 kts 349°
2026-05-08 14:01 26.86716 119.58400 25754 ft 475 kts 349°
2026-05-08 14:01 26.90022 119.58164 25752 ft 476 kts 349°
2026-05-08 14:01 26.93342 119.57926 25753 ft 476 kts 349°
2026-05-08 14:02 26.96667 119.57688 25753 ft 476 kts 349°
2026-05-08 14:02 26.99982 119.57451 25753 ft 476 kts 349°
2026-05-08 14:02 27.03325 119.57213 25754 ft 475 kts 349°
2026-05-08 14:02 27.06621 119.56976 25752 ft 476 kts 349°
2026-05-08 14:03 27.09992 119.56734 25754 ft 476 kts 349°
2026-05-08 14:03 27.13290 119.56499 25757 ft 477 kts 349°
2026-05-08 14:03 27.16641 119.56262 25759 ft 477 kts 349°
2026-05-08 14:03 27.19940 119.56028 25760 ft 477 kts 349°
2026-05-08 14:04 27.23324 119.55785 25759 ft 477 kts 349°
2026-05-08 14:04 27.26630 119.55614 25758 ft 480 kts 352°
2026-05-08 14:04 27.30020 119.55579 25762 ft 481 kts 353°
2026-05-08 14:04 27.33387 119.55581 25764 ft 481 kts 353°
2026-05-08 14:05 27.36723 119.55595 25761 ft 482 kts 353°
2026-05-08 14:05 27.40087 119.55607 25763 ft 482 kts 353°
2026-05-08 14:05 27.43467 119.55617 25764 ft 482 kts 353°
2026-05-08 14:05 27.46842 119.55628 25763 ft 483 kts 353°
2026-05-08 14:06 27.50249 119.55647 25762 ft 483 kts 353°
2026-05-08 14:06 27.53630 119.55666 25762 ft 483 kts 353°
2026-05-08 14:06 27.57018 119.55687 25766 ft 484 kts 353°
2026-05-08 14:06 27.60388 119.55706 25769 ft 483 kts 353°
2026-05-08 14:07 27.63788 119.55726 25767 ft 483 kts 353°
2026-05-08 14:07 27.67159 119.55745 25766 ft 483 kts 353°
2026-05-08 14:07 27.70512 119.55765 25764 ft 484 kts 353°
2026-05-08 14:07 27.73896 119.55784 25768 ft 484 kts 353°
2026-05-08 14:08 27.77298 119.55805 25770 ft 485 kts 353°
2026-05-08 14:08 27.80684 119.55823 25767 ft 485 kts 354°
2026-05-08 14:08 27.84115 119.55846 25764 ft 484 kts 354°
2026-05-08 14:08 27.87492 119.55866 25764 ft 485 kts 353°
2026-05-08 14:09 27.90892 119.55887 25762 ft 485 kts 353°
2026-05-08 14:09 27.94281 119.55914 25765 ft 486 kts 354°
2026-05-08 14:09 27.97696 119.55963 25773 ft 487 kts 354°
2026-05-08 14:09 28.01099 119.56020 25767 ft 488 kts 354°
2026-05-08 14:10 28.04488 119.56078 25769 ft 487 kts 354°
2026-05-08 14:10 28.07908 119.56133 25773 ft 487 kts 354°
2026-05-08 14:10 28.11299 119.56229 25771 ft 488 kts 356°
2026-05-08 14:10 28.14740 119.56402 25773 ft 488 kts 356°
2026-05-08 14:11 28.18116 119.56589 25774 ft 489 kts 356°
2026-05-08 14:11 28.21561 119.56784 25776 ft 489 kts 356°
2026-05-08 14:11 28.24984 119.56979 25776 ft 489 kts 356°
2026-05-08 14:11 28.28395 119.57172 25778 ft 489 kts 356°
2026-05-08 14:12 28.31813 119.57363 25774 ft 490 kts 356°
2026-05-08 14:12 28.35223 119.57552 25777 ft 489 kts 356°
2026-05-08 14:12 28.38658 119.57745 25671 ft 490 kts 356°
2026-05-08 14:12 28.42094 119.57937 25339 ft 490 kts 356°
2026-05-08 14:13 28.45548 119.58128 25010 ft 491 kts 356°
2026-05-08 14:13 28.48944 119.58324 24691 ft 492 kts 356°
2026-05-08 14:13 28.52375 119.58533 24364 ft 493 kts 356°
2026-05-08 14:13 28.55816 119.58746 24047 ft 494 kts 357°
2026-05-08 14:14 28.59293 119.58960 23739 ft 495 kts 357°
2026-05-08 14:14 28.62742 119.59174 23437 ft 496 kts 357°
2026-05-08 14:14 28.66220 119.59391 23172 ft 495 kts 357°
2026-05-08 14:14 28.69635 119.59604 22959 ft 493 kts 357°
2026-05-08 14:15 28.73098 119.59821 22736 ft 490 kts 357°
2026-05-08 14:15 28.76467 119.60035 22396 ft 475 kts 357°
2026-05-08 14:15 28.79750 119.60244 22089 ft 461 kts 357°
2026-05-08 14:15 28.82908 119.60445 21902 ft 444 kts 357°
2026-05-08 14:16 28.85921 119.60635 21887 ft 425 kts 357°
2026-05-08 14:16 28.88828 119.60819 21781 ft 410 kts 356°
2026-05-08 14:16 28.91652 119.60993 21508 ft 400 kts 356°
2026-05-08 14:16 28.94406 119.61162 21229 ft 391 kts 356°
2026-05-08 14:17 28.97125 119.61324 20957 ft 388 kts 357°
2026-05-08 14:17 28.99831 119.61488 20678 ft 386 kts 357°
2026-05-08 14:17 29.02522 119.61656 20399 ft 384 kts 356°
2026-05-08 14:17 29.05196 119.61821 20123 ft 383 kts 356°
2026-05-08 14:18 29.07874 119.61987 19846 ft 382 kts 358°
2026-05-08 14:18 29.10547 119.62150 19578 ft 389 kts 357°
2026-05-08 14:18 29.13317 119.62315 19295 ft 395 kts 357°
2026-05-08 14:18 29.16069 119.62480 19019 ft 395 kts 358°
2026-05-08 14:19 29.18842 119.62650 18737 ft 394 kts 358°
2026-05-08 14:19 29.21586 119.62818 18459 ft 391 kts 358°
2026-05-08 14:19 29.24288 119.62984 18183 ft 390 kts 358°
2026-05-08 14:19 29.27018 119.63150 17904 ft 389 kts 358°
2026-05-08 14:20 29.29743 119.63316 17634 ft 388 kts 358°
2026-05-08 14:20 29.32466 119.63483 17363 ft 386 kts 358°
2026-05-08 14:20 29.35153 119.63648 17090 ft 385 kts 358°
2026-05-08 14:20 29.37810 119.63812 16819 ft 382 kts 358°
2026-05-08 14:21 29.40483 119.63976 16544 ft 379 kts 358°
2026-05-08 14:21 29.43118 119.64138 16269 ft 376 kts 358°
2026-05-08 14:21 29.45752 119.64301 15992 ft 374 kts 358°
2026-05-08 14:21 29.48324 119.64459 15717 ft 370 kts 359°
2026-05-08 14:22 29.50908 119.64618 15438 ft 368 kts 359°
2026-05-08 14:22 29.53469 119.64774 15158 ft 365 kts 359°
2026-05-08 14:22 29.56014 119.64912 14875 ft 361 kts 358°
2026-05-08 14:22 29.58520 119.64978 14594 ft 358 kts 358°
2026-05-08 14:23 29.61023 119.65029 14308 ft 355 kts 359°
2026-05-08 14:23 29.63497 119.65128 14024 ft 354 kts
2026-05-08 14:23 29.65964 119.65295 13739 ft 351 kts
2026-05-08 14:23 29.68391 119.65469 13446 ft 343 kts
2026-05-08 14:24 29.70773 119.65640 13151 ft 335 kts
2026-05-08 14:24 29.73080 119.65802 12857 ft 328 kts
2026-05-08 14:24 29.75341 119.65959 12565 ft 326 kts
2026-05-08 14:24 29.77638 119.66109 12268 ft 324 kts
2026-05-08 14:25 29.79861 119.66225 11976 ft 318 kts
2026-05-08 14:25 29.82066 119.66333 11677 ft 311 kts
2026-05-08 14:25 29.84202 119.66550 11373 ft 306 kts
2026-05-08 14:25 29.86267 119.67145 11070 ft 301 kts 18°
2026-05-08 14:26 29.88200 119.68091 10770 ft 297 kts 25°
2026-05-08 14:26 29.90023 119.69176 10473 ft 292 kts 27°
2026-05-08 14:26 29.91817 119.70275 10175 ft 287 kts 27°
2026-05-08 14:26 29.93578 119.71354 9880 ft 286 kts 27°
2026-05-08 14:27 29.95278 119.72536 9569 ft 286 kts 42°
2026-05-08 14:27 29.96402 119.74409 9266 ft 284 kts 65°
2026-05-08 14:27 29.97149 119.76534 8972 ft 283 kts 68°
2026-05-08 14:27 29.97852 119.78628 8682 ft 280 kts 68°
2026-05-08 14:28 29.98588 119.80710 8382 ft 278 kts 67°
2026-05-08 14:28 29.99349 119.82766 8088 ft 276 kts 66°
2026-05-08 14:28 30.00119 119.84786 7786 ft 273 kts 66°
2026-05-08 14:28 30.00895 119.86787 7496 ft 272 kts 66°
2026-05-08 14:29 30.01667 119.88761 7203 ft 270 kts 66°
2026-05-08 14:29 30.02440 119.90728 6903 ft 266 kts 66°
2026-05-08 14:29 30.03197 119.92651 6608 ft 261 kts 67°
2026-05-08 14:29 30.03942 119.94540 6309 ft 258 kts 67°
2026-05-08 14:30 30.04685 119.96423 6005 ft 254 kts 67°
2026-05-08 14:30 30.05413 119.98273 5700 ft 251 kts 67°
2026-05-08 14:30 30.06132 120.00098 5398 ft 248 kts 67°
2026-05-08 14:30 30.06843 120.01906 5094 ft 245 kts 67°
2026-05-08 14:31 30.07551 120.03704 4874 ft 238 kts 67°
2026-05-08 14:31 30.08212 120.05379 4854 ft 224 kts 67°
2026-05-08 14:31 30.08852 120.07006 4854 ft 218 kts 67°
2026-05-08 14:32 30.10206 120.10135 4594 ft 218 kts 64°
2026-05-08 14:32 30.10923 120.11672 4316 ft 216 kts 64°
2026-05-08 14:32 30.11633 120.13213 4059 ft 212 kts 64°
2026-05-08 14:32 30.12310 120.14714 3878 ft 204 kts 65°
2026-05-08 14:33 30.12941 120.16130 3857 ft 189 kts 65°
2026-05-08 14:33 30.13512 120.17423 3913 ft 176 kts 65°
2026-05-08 14:33 30.14072 120.18703 3928 ft 176 kts 65°
2026-05-08 14:33 30.14620 120.19959 3896 ft 177 kts 66°
2026-05-08 14:34 30.15180 120.21241 3694 ft 175 kts 65°
2026-05-08 14:34 30.15732 120.22504 3448 ft 175 kts 65°
2026-05-08 14:34 30.16279 120.23750 3215 ft 174 kts 65°
2026-05-08 14:34 30.16824 120.24991 2975 ft 168 kts 65°
2026-05-08 14:35 30.17345 120.26173 2746 ft 162 kts 66°
2026-05-08 14:35 30.17854 120.27328 2530 ft 156 kts 65°
2026-05-08 14:35 30.18340 120.28429 2350 ft 152 kts 65°
2026-05-08 14:35 30.18817 120.29514 2154 ft 150 kts 65°
2026-05-08 14:36 30.19277 120.30553 1940 ft 136 kts 65°
2026-05-08 14:36 30.19693 120.31494 1758 ft 131 kts 65°
2026-05-08 14:36 30.20112 120.32443 1596 ft 130 kts 65°
2026-05-08 14:36 30.20522 120.33373 1431 ft 132 kts 65°
2026-05-08 14:37 30.20946 120.34334 1260 ft 132 kts 64°
2026-05-08 14:37 30.21365 120.35278 1078 ft 131 kts 66°
2026-05-08 14:37 30.21785 120.36227 903 ft 134 kts 65°
2026-05-08 14:37 30.22212 120.37193 721 ft 133 kts 65°
2026-05-08 14:38 30.22637 120.38155 550 ft 134 kts 64°
2026-05-08 14:38 30.23066 120.39125 374 ft 134 kts 64°
2026-05-08 14:38 30.23494 120.40094 199 ft 134 kts 64°
2026-05-08 14:38 30.23924 120.41062 50 ft 133 kts 63°
2026-05-08 14:39 30.24318 120.41949 29 ft 101 kts 62°
2026-05-08 14:39 30.24560 120.42501 29 ft 51 kts 63°
2026-05-08 14:39 30.24659 120.42721 29 ft 21 kts 64°
2026-05-08 14:39 30.24714 120.42883 29 ft 21 kts 76°
2026-05-08 14:40 30.24722 120.43054 29 ft 15 kts 89°
2026-05-08 14:40 30.24723 120.43096 29 ft 4 kts 89°
2026-05-08 14:40 30.24723 120.43149 29 ft 9 kts 89°
2026-05-08 14:40 30.24713 120.43233 29 ft 11 kts 123°
2026-05-08 14:41 30.24649 120.43268 29 ft 7 kts 166°
2026-05-08 14:41 30.24599 120.43240 29 ft 11 kts 254°
2026-05-08 14:41 30.24554 120.43149 29 ft 15 kts 241°
2026-05-08 14:41 30.24497 120.43026 29 ft 19 kts 243°
2026-05-08 14:42 30.24442 120.42896 29 ft 17 kts 245°
2026-05-08 14:42 30.24410 120.42821 29 ft 2 kts 241°
2026-05-08 14:42 30.24390 120.42800 29 ft 5 kts 212°
2026-05-08 14:42 30.24343 120.42801 29 ft 8 kts 172°
2026-05-08 14:43 30.24276 120.42797 29 ft 10 kts 168°
2026-05-08 14:43 30.24201 120.42838 29 ft 12 kts 153°
2026-05-08 14:43 30.24147 120.42841 29 ft 7 kts 226°
2026-05-08 14:43 30.24126 120.42812 29 ft 0 kts 233°
2026-05-08 14:44 30.24123 120.42808 29 ft 0 kts 231°